Theta_e
292 293 293 293 294 294 294 295 295 295 295 295 295 295 296 297 296 295 295 295 296 296 297 297 298 297 295 296 298 300 301 300 300 300 301 302 301 300 298 299 300 301 302 303 304 304 303 302 301 300 301 302 303 303 304 303 300 298 298 297 296 297 297 297 297 297 297 297 297 298 299 299 298 298 297 296 295 295 295 297 299 298 298 297 297 297 297 297 296 295 296 296 296 297 296 295 294 295 296 295 293 292 292
292 292 293 293 293 294 294 295 295 296 295 295 295 294 295 296 296 296 295 295 295 295 297 298 298 297 295 295 298 301 301 300 300 300 300 300 301 300 298 298 299 300 301 302 303 303 303 302 301 300 301 301 301 302 303 302 300 299 298 297 297 297 296 296 296 297 297 297 298 298 299 299 299 298 296 296 295 296 296 297 299 298 299 299 298 297 297 296 296 296 297 297 297 298 299 298 296 295 295 294 294 293 293
292 292 292 293 293 293 294 295 295 296 296 297 296 295 295 296 297 297 295 294 294 294 297 298 298 295 294 295 298 301 301 300 300 300 299 300 300 300 299 299 299 299 300 301 301 301 303 303 302 301 302 302 302 302 302 301 299 299 298 298 298 297 297 296 297 298 297 298 299 299 299 299 299 298 297 296 295 297 296 297 298 298 298 298 298 296 296 297 297 298 297 297 297 298 299 299 297 295 294 294 294 294 294
292 292 293 293 293 293 294 295 296 298 298 298 298 296 295 295 296 295 294 293 293 295 297 297 297 294 294 296 297 299 300 299 298 299 298 299 299 299 299 299 299 299 300 300 300 301 302 303 303 304 304 303 303 301 301 300 299 299 299 299 298 297 296 297 297 298 297 298 299 299 299 299 299 298 298 297 297 297 296 297 298 298 299 298 297 297 297 298 298 297 296 296 296 297 297 297 297 296 294 293 294 295 294
293 292 292 293 293 293 295 295 296 297 297 298 297 295 294 294 293 293 293 294 294 295 296 296 295 294 295 296 298 299 299 299 298 299 299 298 298 299 298 298 298 298 299 300 300 299 301 302 303 304 303 302 302 301 301 300 300 299 299 299 298 297 297 297 298 298 297 298 298 299 299 299 299 298 298 298 298 297 296 297 298 300 299 297 296 295 296 296 297 297 296 295 295 295 296 296 296 296 294 294 294 295 295
293 292 292 293 293 293 294 294 295 295 294 294 294 294 294 293 293 293 294 294 294 295 295 294 294 293 294 295 296 297 297 299 299 298 297 297 297 297 296 297 297 296 297 298 299 298 297 298 299 299 299 299 298 298 299 299 299 299 299 299 298 297 297 298 298 298 297 297 298 299 299 299 299 299 299 299 299 298 297 297 298 300 298 297 296 296 296 296 296 297 296 295 295 294 294 294 294 293 293 294 294 296 295
292 293 293 293 293 294 294 295 295 294 293 294 295 295 294 294 293 293 294 295 295 296 295 294 293 293 293 294 295 295 295 298 300 299 296 296 297 297 295 295 295 296 296 296 297 298 298 297 295 295 295 296 296 297 297 298 299 299 298 298 299 298 298 298 298 299 298 298 298 299 299 299 299 298 299 299 299 298 298 297 297 298 299 298 298 297 296 296 296 296 296 295 295 295 296 294 293 292 291 291 291 293 295
292 293 293 294 294 294 294 294 293 291 292 293 294 294 294 294 294 294 295 295 295 295 295 294 293 293 293 293 294 294 295 297 298 298 296 297 297 296 295 294 294 294 294 294 294 294 295 295 295 295 295 296 295 296 297 298 299 299 299 299 299 298 298 298 298 298 298 298 298 299 299 298 298 298 299 299 299 299 298 298 298 297 298 298 298 297 297 297 296 296 295 294 293 294 295 294 293 293 291 290 291 291 294
293 293 294 294 294 293 293 294 294 292 293 293 293 293 294 294 295 295 296 295 295 295 293 293 292 292 293 293 293 293 293 294 295 295 295 297 297 296 295 295 295 294 294 294 295 294 294 295 295 295 295 295 295 296 297 298 299 299 300 300 300 299 298 298 298 299 298 298 298 298 299 298 298 299 299 298 299 299 298 298 298 297 298 298 298 298 298 297 296 295 294 293 293 294 294 293 292 293 292 291 290 290 291
293 293 294 294 293 292 292 293 294 293 293 292 292 293 294 294 294 295 294 294 294 293 293 293 292 292 292 292 292 292 292 292 292 293 295 296 297 296 296 296 296 296 295 295 296 296 295 295 296 296 296 296 296 296 296 297 298 299 300 300 299 299 299 298 298 298 298 298 298 298 299 299 298 298 298 298 298 298 298 298 297 298 298 298 298 298 297 296 295 294 293 293 293 294 294 293 292 292 292 292 290 289 290
292 293 293 293 293 294 293 293 293 293 293 293 293 294 294 294 294 293 293 293 293 293 293 293 292 292 292 292 292 292 292 291 292 293 295 295 295 295 295 295 295 295 295 295 295 295 295 295 296 296 296 296 296 296 297 297 298 298 298 299 299 298 298 298 298 298 298 298 298 298 298 299 299 298 298 297 297 298 298 298 298 299 299 298 297 297 296 295 295 294 293 293 294 293 293 293 293 292 292 291 291 289 289
292 294 293 293 293 295 294 293 293 292 293 294 295 294 294 293 293 293 292 292 292 293 292 292 292 292 293 293 293 292 291 291 292 294 295 295 294 295 294 294 294 294 294 294 294 295 295 295 296 296 296 296 297 297 297 298 298 298 298 298 298 298 298 298 299 299 299 298 298 298 298 298 298 298 298 298 298 297 298 298 298 299 299 298 297 297 296 295 295 295 294 294 294 293 293 294 294 294 292 291 290 289 288
292 293 293 292 293 294 294 293 293 292 293 295 296 295 293 293 292 291 291 291 292 293 292 292 292 292 294 295 294 292 292 291 292 292 294 295 295 294 293 293 293 292 293 293 294 295 295 295 295 294 294 295 296 297 298 297 297 297 297 298 298 298 298 298 298 299 299 299 299 299 298 298 298 298 298 298 298 298 298 298 298 299 300 299 298 297 296 296 295 295 294 295 295 293 292 292 293 294 291 291 290 289 288
292 292 292 291 291 292 293 293 293 293 294 294 295 294 292 291 291 290 290 290 291 292 292 292 291 292 293 295 295 293 292 292 292 292 294 295 295 295 294 293 293 292 294 295 295 295 295 294 294 294 295 296 296 296 297 297 296 297 297 297 298 298 298 298 298 299 299 299 299 299 299 298 298 298 298 298 298 298 298 298 299 299 300 299 298 297 296 296 295 295 294 293 292 291 291 291 292 292 291 290 290 290 289
292 292 291 291 291 291 291 293 294 294 294 294 293 292 291 291 291 290 290 290 290 291 293 292 291 292 292 293 294 293 293 294 295 293 293 295 295 295 294 294 294 293 294 295 295 295 294 294 294 295 296 297 296 295 296 295 295 296 296 297 297 298 298 298 297 298 299 299 299 299 299 299 299 299 298 298 298 298 298 298 298 299 300 298 297 296 295 295 294 293 292 291 290 290 290 290 291 292 292 292 291 291 290
290 290 290 290 291 292 292 293 294 294 293 293 292 290 291 291 290 290 291 291 291 291 292 293 293 292 293 293 293 293 293 294 295 294 293 294 295 297 295 294 294 294 294 294 294 295 295 295 294 294 295 295 294 294 294 294 294 294 295 296 297 297 298 297 297 297 298 298 299 299 299 298 299 299 299 298 297 297 297 297 298 298 299 297 295 294 293 293 292 291 291 290 289 289 289 290 290 291 292 293 292 291 290
289 289 289 291 292 293 293 293 293 293 292 292 291 290 292 292 291 291 292 292 292 292 293 294 294 293 293 293 293 293 293 293 294 293 293 294 294 296 294 293 293 293 294 293 292 293 293 294 294 293 293 293 293 294 294 293 293 293 295 296 296 297 297 297 297 297 298 297 298 298 298 297 297 298 298 297 297 296 296 297 298 299 298 296 294 293 292 291 290 290 290 290 289 289 289 290 290 291 291 291 291 290 289
290 290 290 291 292 293 292 292 292 292 292 292 291 290 291 292 292 293 293 293 292 292 292 293 293 293 293 293 292 293 293 293 294 294 294 294 293 293 293 293 293 293 293 292 292 291 291 292 292 293 293 293 293 293 293 293 293 294 295 296 296 296 296 296 297 297 297 297 296 296 296 296 296 296 296 295 295 295 295 296 298 299 297 295 293 292 291 291 291 290 290 290 290 290 290 290 291 291 291 291 290 290 289
291 292 292 292 292 291 291 291 292 293 293 293 292 292 292 293 293 293 293 293 293 292 292 292 293 293 293 293 293 293 293 293 293 294 294 293 293 292 292 293 293 292 292 292 291 291 291 291 291 292 292 292 293 292 292 293 294 294 295 295 295 296 296 296 296 296 296 295 295 294 294 294 295 294 294 294 294 294 294 295 297 297 296 294 293 292 291 291 291 291 291 291 292 291 292 292 292 292 292 292 292 291 291
293 293 293 292 292 291 291 292 293 293 293 293 293 294 294 294 294 293 293 293 293 292 292 293 293 294 294 294 294 293 293 293 293 293 293 293 292 292 292 292 292 291 291 291 291 291 290 290 290 291 291 292 292 292 292 292 293 293 294 295 295 295 295 295 294 294 294 294 294 293 293 294 294 293 293 293 293 293 294 295 295 295 294 293 293 292 292 292 292 293 294 294 294 294 294 294 294 293 293 293 293 293 293
293 293 293 293 293 293 293 294 294 294 293 294 294 295 295 294 294 293 293 293 292 292 291 293 294 296 296 295 294 293 293 293 293 293 292 292 292 292 292 291 290 290 290 290 290 290 290 290 290 290 291 291 291 292 292 292 292 292 293 294 294 294 294 294 293 293 293 293 293 293 292 293 293 293 292 293 294 294 294 294 294 294 293 293 294 294 294 294 295 296 296 296 296 296 295 295 295 294 294 294 294 294 293
293 293 293 294 294 294 295 295 295 294 294 295 295 295 294 294 294 293 292 292 292 291 291 292 294 296 296 295 294 294 293 293 292 292 291 291 291 291 290 290 290 290 290 290 289 289 289 289 289 290 290 291 291 291 292 292 292 292 292 292 293 293 293 293 292 292 292 292 292 291 291 292 293 293 293 293 293 294 294 294 294 294 294 295 295 296 296 296 296 297 297 297 296 296 296 295 295 294 294 294 294 293 293
293 293 294 294 294 295 295 295 294 294 294 294 294 294 294 294 293 293 292 292 291 291 291 291 293 295 296 295 294 293 293 292 292 292 291 291 290 290 290 290 290 290 290 290 289 290 289 289 289 290 290 290 291 291 291 291 291 291 290 291 291 292 292 291 291 291 291 291 291 291 291 291 293 293 293 293 293 294 294 294 295 295 296 296 296 296 296 297 296 297 297 297 296 296 295 295 295 295 295 295 294 293 293
293 294 294 294 294 294 294 294 293 293 294 294 294 294 294 293 293 292 291 291 291 291 291 291 291 294 295 294 294 293 293 292 292 292 291 290 289 289 289 289 290 290 290 290 290 290 289 289 289 290 291 291 290 290 290 290 290 290 289 290 290 290 290 290 291 290 290 290 291 291 291 292 292 292 292 293 294 294 295 296 296 296 296 297 297 297 297 296 297 296 296 296 296 296 295 295 295 295 295 295 294 293 293
293 293 293 293 293 293 293 293 292 293 293 294 294 294 294 293 292 291 291 290 290 291 291 291 292 293 294 294 294 294 294 294 293 292 291 290 289 289 289 289 289 289 289 289 290 290 290 289 290 290 290 290 290 290 289 289 289 289 289 289 290 290 290 290 291 291 291 291 292 291 292 293 293 293 293 294 294 295 296 296 296 297 296 297 297 296 297 296 296 296 296 296 296 296 295 295 295 295 295 294 294 293 293
293 293 293 293 293 292 292 292 292 292 293 293 293 293 292 292 291 291 290 291 291 292 291 291 291 293 294 294 294 294 294 294 293 291 290 289 289 289 289 289 289 289 289 289 289 288 289 289 290 290 289 289 289 289 289 288 288 289 289 289 290 290 291 291 292 292 293 292 292 292 293 293 293 294 294 294 294 294 295 296 296 296 296 296 296 296 296 296 296 296 296 296 296 295 295 295 295 295 294 294 293 293 293
293 293 292 292 292 292 292 292 291 292 292 293 292 292 291 291 291 291 290 291 292 292 291 290 290 292 293 294 294 295 294 293 292 291 290 289 288 288 288 288 288 288 288 287 287 286 287 288 289 289 289 289 289 290 289 289 288 289 289 289 290 290 291 292 293 293 293 292 292 292 293 293 293 294 294 294 294 294 295 295 296 296 296 296 295 295 296 296 296 296 296 296 296 295 295 294 294 294 294 294 293 292 292
293 292 292 292 292 292 292 292 292 292 292 291 291 291 291 291 291 290 291 292 292 291 290 290 291 291 293 294 295 295 293 293 292 291 289 288 287 288 288 288 287 287 287 286 286 286 287 288 289 290 289 288 287 288 288 288 288 289 290 290 290 290 291 291 292 293 292 292 292 292 293 293 293 293 294 294 294 294 295 295 295 296 295 295 295 296 296 296 296 295 295 295 295 295 294 294 294 294 294 293 293 292 292
292 292 292 292 292 292 292 292 292 292 291 291 291 291 290 291 291 290 290 291 291 291 291 292 293 294 295 296 295 294 293 292 291 290 288 287 287 288 288 288 287 286 286 286 286 287 287 287 288 289 287 287 287 288 287 287 287 289 289 290 290 290 290 291 292 292 292 292 292 292 293 293 293 293 294 294 295 295 295 295 295 295 296 296 296 296 296 295 295 294 295 295 294 294 294 294 294 295 294 293 293 292 291
290 291 292 292 292 292 292 292 291 291 291 291 291 291 291 292 292 292 291 290 290 291 291 293 294 295 296 295 295 294 293 293 292 290 289 288 288 288 288 288 287 287 286 286 286 287 286 286 286 286 286 286 287 287 288 288 288 288 289 289 289 290 291 291 291 292 293 293 293 293 293 294 294 294 293 294 295 295 295 295 295 295 295 295 295 295 294 294 294 294 295 295 295 295 294 294 294 294 293 292 292 291 290
290 291 291 291 291 292 292 291 291 289 289 289 289 290 291 292 293 292 290 290 290 290 292 294 295 296 295 294 294 294 294 293 292 290 288 288 287 288 288 288 288 288 287 286 286 285 285 285 285 285 285 285 286 286 286 287 287 289 289 290 290 291 291 291 291 292 293 293 293 293 293 294 294 294 294 294 295 295 295 295 294 294 294 293 293 293 293 294 294 295 295 295 295 295 294 294 294 293 292 291 290 289 289
290 291 291 291 292 292 291 291 290 289 289 288 288 289 290 291 291 291 291 291 292 294 294 294 294 294 294 294 294 294 293 292 290 288 287 286 287 287 287 287 286 286 286 286 285 285 285 285 285 285 285 285 285 285 286 286 287 287 288 288 289 290 291 291 292 293 293 294 294 294 294 294 294 294 294 294 294 294 294 294 294 294 294 294 294 294 294 294 295 295 295 294 294 293 294 293 293 292 290 289 288 288 288
290 291 291 291 291 291 290 290 290 290 291 292 292 292 292 291 291 291 292 294 296 297 295 294 292 292 292 292 292 292 291 290 288 287 286 286 286 286 286 285 285 285 285 285 285 284 285 284 285 285 285 285 286 286 286 286 286 286 287 288 289 290 291 291 292 293 294 294 294 294 293 293 293 293 293 293 293 294 294 294 294 294 294 294 294 294 294 294 294 294 294 294 293 292 292 292 291 289 288 287 287 287 287
290 291 291 291 290 290 290 290 290 291 292 293 293 294 293 293 293 293 295 296 297 297 295 294 293 292 293 293 293 292 291 289 287 286 286 286 286 285 286 286 285 285 285 284 284 284 284 284 284 284 284 285 285 286 285 285 286 286 287 288 289 290 290 291 292 293 292 292 292 292 291 291 291 291 291 291 291 292 293 293 294 294 294 294 294 294 294 294 294 293 293 292 292 291 290 289 288 287 286 285 285 285 285
290 290 290 290 290 290 291 291 292 292 293 293 293 293 293 294 294 295 296 296 297 296 296 295 294 294 294 293 293 292 291 289 287 286 286 286 286 285 285 286 286 286 285 284 284 284 284 284 284 284 284 284 285 285 285 285 285 286 287 288 289 290 290 291 292 291 291 291 290 290 289 289 289 289 289 290 290 291 292 293 293 293 293 293 293 293 293 293 292 291 290 289 288 288 287 286 285 285 284 283 283 283 282
289 289 290 290 291 293 294 294 294 293 293 294 294 294 295 295 296 296 296 296 296 296 296 295 294 294 293 292 292 291 289 287 286 285 285 286 285 285 285 285 285 285 284 283 283 283 284 284 284 284 284 284 284 285 285 285 285 286 287 288 288 289 289 290 290 290 290 290 289 288 288 288 288 288 289 289 290 291 291 291 292 292 291 291 291 291 290 289 288 287 286 286 285 285 284 284 283 282 282 281 281 280 280
289 290 291 292 294 295 295 295 294 294 294 295 296 296 297 297 297 296 296 296 296 296 296 295 294 293 292 291 290 289 288 286 285 285 285 285 285 285 285 285 284 284 283 283 283 283 283 283 284 284 284 284 284 285 285 285 285 286 286 287 287 288 289 288 288 288 288 288 288 287 287 287 287 288 289 289 289 290 290 290 290 290 290 289 289 288 287 287 286 285 284 284 283 283 283 282 282 281 281 281 280 279 279
291 292 293 294 294 295 294 294 294 295 295 296 296 297 297 297 297 297 296 296 296 295 295 293 292 291 291 290 289 287 286 285 284 284 284 285 285 284 284 284 283 283 283 283 282 282 282 283 283 284 284 283 284 284 284 284 285 285 286 286 287 287 287 287 287 286 286 287 287 286 286 287 287 288 288 288 288 288 289 289 288 288 288 287 287 286 286 285 284 283 283 283 282 282 282 282 281 281 281 280 280 279 279
293 293 294 294 294 294 293 293 294 296 297 297 297 297 297 297 297 296 295 295 295 294 293 292 291 290 289 288 287 286 284 283 283 283 284 284 284 284 284 283 282 282 282 282 282 282 282 282 283 283 284 284 284 284 284 284 285 285 285 285 286 286 286 286 285 285 285 285 285 286 286 286 287 287 287 287 287 287 287 287 286 286 285 285 285 284 284 283 283 282 282 282 282 281 281 281 280 280 280 280 280 279 279
293 293 293 293 293 294 294 295 297 297 298 298 297 298 298 297 296 295 295 294 294 293 292 291 290 288 288 287 286 284 283 283 283 283 284 284 284 284 283 282 282 282 282 282 282 282 282 283 283 283 284 284 284 284 284 285 285 285 285 285 286 287 286 286 285 285 285 284 285 285 285 285 286 286 286 286 285 285 285 285 285 284 284 283 283 283 283 283 283 282 282 281 281 281 281 281 280 280 280 280 280 280 280
293 293 293 294 294 295 297 298 298 298 298 298 298 298 297 296 295 294 294 294 294 293 292 290 288 287 286 286 285 284 283 282 282 283 283 283 283 284 283 282 282 283 283 282 282 282 283 283 283 284 284 284 284 285 285 285 285 286 286 287 287 287 287 286 286 285 285 285 285 285 286 285 285 285 285 284 284 284 284 284 284 284 283 283 283 283 283 283 283 283 282 282 282 282 281 281 281 280 280 280 280 280 280
293 294 294 295 296 297 298 298 298 298 297 297 297 297 296 295 294 294 293 293 293 293 291 289 288 287 286 285 284 283 282 282 282 283 283 283 283 283 283 283 283 283 283 283 283 282 283 283 284 284 284 284 285 285 285 285 285 286 287 287 287 287 287 287 286 286 286 286 286 286 286 285 285 285 285 284 284 284 284 284 284 284 283 283 283 283 283 283 283 283 283 283 282 282 282 282 281 281 281 281 281 281 281
294 295 296 296 297 297 297 297 297 297 297 296 296 295 295 295 294 294 294 293 293 292 290 289 287 286 285 285 284 283 282 282 282 283 283 283 283 283 283 283 283 283 283 283 283 283 283 284 284 284 284 284 285 285 285 285 286 286 287 287 287 287 287 287 287 287 287 287 287 286 286 285 285 285 285 284 284 284 284 284 284 284 284 284 284 284 284 284 284 284 283 283 283 282 282 282 282 281 281 281 281 281 281
295 296 296 296 296 296 296 296 296 296 296 296 295 295 295 294 294 294 294 293 292 291 290 288 286 285 285 284 284 283 282 282 282 283 283 283 283 283 284 284 284 284 283 283 283 283 284 284 284 284 284 285 285 285 285 285 286 286 286 286 286 286 287 288 288 288 287 287 286 286 285 285 285 284 284 284 284 283 283 283 284 284 284 284 284 284 284 284 284 284 283 283 283 282 282 282 281 281 281 281 281 281 281
295 295 295 295 294 294 295 295 295 295 295 295 295 295 295 294 294 294 293 293 292 291 289 288 286 285 284 284 284 283 282 282 282 283 283 283 283 283 284 284 284 284 284 284 284 284 284 284 284 285 285 285 285 285 285 285 286 286 286 286 286 287 287 288 288 287 286 286 286 285 285 284 284 284 283 283 283 283 283 283 283 284 283 283 283 283 283 283 283 282 282 282 281 281 281 280 280 280 280 280 280 279 279
295 295 295 295 294 294 294 294 294 294 295 295 295 295 295 294 294 293 293 293 292 291 290 289 288 286 284 283 283 282 281 282 282 283 283 283 283 283 284 285 285 285 285 285 285 285 284 284 284 285 285 285 285 285 285 285 285 285 286 286 286 287 287 287 286 286 285 285 285 284 284 284 283 283 283 283 283 283 283 283 283 283 283 282 282 282 282 281 281 281 281 280 280 280 280 279 279 279 279 278 278 278 278
295 294 294 294 294 294 294 294 294 294 295 295 295 295 295 294 293 293 292 292 291 290 290 289 288 286 284 283 283 282 282 282 283 283 283 283 283 283 283 284 285 285 286 286 286 285 285 285 285 285 285 285 285 285 285 285 285 285 286 286 286 286 286 285 285 285 284 284 284 283 283 283 283 283 282 282 282 282 282 282 281 281 281 281 280 280 279 279 279 279 279 279 279 279 278 278 279 278 278 277 277 277 277
294 294 293 293 294 294 294 294 294 295 295 295 294 294 294 294 293 293 292 290 289 288 288 288 287 285 284 283 283 282 282 282 283 283 283 284 283 283 284 284 285 285 286 286 286 285 284 284 285 285 285 285 285 285 285 285 285 285 285 285 284 284 284 283 283 283 283 283 282 282 282 282 281 281 281 281 280 280 280 280 280 279 279 279 279 279 278 278 278 278 278 278 278 278 278 278 278 278 278 277 277 277 277
294 293 293 293 294 294 294 295 295 295 295 295 295 294 294 294 293 293 292 292 290 289 289 288 287 285 284 283 283 282 282 283 283 283 283 284 284 284 285 285 285 285 285 285 284 284 284 284 284 285 285 285 285 285 285 285 285 284 284 283 282 282 282 281 281 281 281 281 281 281 281 280 280 280 280 280 279 279 279 278 278 278 278 278 279 279 279 280 280 280 279 279 279 278 278 278 278 278 277 277 277 276 276
293 293 293 293 294 294 295 295 295 295 295 295 295 295 294 294 294 294 294 293 292 292 291 290 288 286 285 283 283 282 283 283 283 283 283 284 284 285 286 286 286 285 284 284 284 284 284 284 284 285 285 285 286 286 286 285 284 283 282 282 281 281 280 280 280 279 280 280 279 280 279 279 279 279 280 279 279 279 278 278 278 278 278 279 280 280 283 285 285 284 283 282 280 280 279 279 278 278 278 277 277 277 276
293 293 293 293 294 294 294 295 295 295 295 295 295 295 294 294 295 295 294 293 292 291 291 290 288 286 285 284 282 283 284 284 284 283 283 284 285 285 286 287 286 285 284 284 284 284 284 284 285 285 285 286 286 286 285 284 284 282 281 281 280 280 279 279 279 279 279 279 279 279 278 278 278 278 279 279 279 279 278 278 279 279 280 281 282 284 285 286 287 287 286 284 282 281 280 279 279 278 277 277 276 276 276
293 293 293 293 294 294 295 295 295 295 296 296 296 295 295 295 295 294 294 293 292 291 290 289 288 287 286 284 282 282 284 284 284 284 284 285 285 286 287 286 286 284 284 283 284 284 285 285 285 285 286 286 286 285 285 284 283 281 281 280 280 279 279 279 279 279 279 279 280 279 278 278 279 279 279 279 279 279 279 280 281 281 281 282 283 285 285 286 286 286 286 286 284 282 280 279 278 277 276 276 275 275 275
293 293 293 294 294 295 295 295 296 296 296 296 296 295 295 295 294 294 293 292 292 292 291 289 288 287 286 283 282 282 283 284 285 285 285 286 286 287 286 286 285 284 284 284 284 285 285 285 285 285 286 285 285 285 283 283 282 281 280 280 279 279 279 279 279 280 280 280 280 279 279 279 280 280 280 281 281 281 281 282 282 282 282 282 283 285 285 285 286 286 286 286 286 283 279 277 277 276 275 275 274 274 274
293 294 294 295 295 296 296 296 297 297 297 296 296 295 295 295 294 294 293 293 292 293 291 290 288 287 284 282 281 282 283 284 285 286 286 286 287 287 286 286 285 284 284 284 284 284 285 285 285 285 285 284 284 283 283 282 282 281 280 280 280 280 280 280 280 280 281 281 281 280 280 281 281 281 282 283 284 284 284 284 283 282 282 282 283 284 285 285 285 286 286 286 286 285 280 277 275 275 275 275 275 275 275
294 295 296 296 296 296 297 297 297 297 297 296 296 296 295 294 294 293 293 293 293 292 291 290 288 286 283 282 282 283 284 284 284 285 286 286 287 286 286 285 284 284 283 283 283 284 284 284 284 283 283 283 283 283 283 282 282 281 281 281 281 281 281 281 281 281 281 282 282 282 282 282 283 284 285 285 285 285 284 284 283 282 281 281 282 283 284 284 285 286 286 286 286 286 281 278 275 275 275 275 275 276 276
295 296 296 296 296 296 296 296 297 297 297 297 296 296 295 294 293 293 293 293 293 292 290 289 287 284 284 284 284 284 284 283 283 284 285 286 286 284 283 283 283 283 282 282 282 282 282 282 282 281 282 282 282 282 282 281 281 282 282 281 281 281 281 281 281 281 282 282 282 282 283 285 286 286 286 286 285 285 284 283 282 281 280 280 281 283 283 284 285 286 286 286 285 285 282 278 276 275 275 275 275 276 276
295 295 295 295 295 296 296 296 297 297 297 297 297 296 295 293 293 292 292 292 291 289 287 286 284 284 285 285 285 286 285 285 285 285 285 285 284 282 281 281 282 282 282 282 282 281 281 281 280 280 281 281 281 281 281 281 282 282 281 281 280 280 280 281 281 281 282 283 284 285 286 286 286 286 286 286 285 284 283 282 280 280 278 278 280 282 283 284 285 285 285 285 285 285 282 279 276 275 274 274 275 275 275
295 295 295 295 295 296 297 297 298 298 298 298 297 296 294 293 292 291 291 289 288 286 285 285 284 285 285 286 286 286 286 286 286 285 284 283 282 281 280 280 281 281 281 281 281 280 280 280 280 280 280 281 281 282 282 282 282 281 281 281 281 281 281 281 282 283 284 285 286 286 286 286 286 286 285 285 284 282 281 279 278 278 277 278 280 282 283 284 285 285 285 284 284 285 282 278 276 274 274 274 275 275 275
295 294 294 295 296 297 298 299 299 299 298 298 298 297 295 294 293 292 289 287 286 286 285 285 286 286 286 286 286 286 286 285 284 283 282 282 281 281 280 280 280 280 280 280 280 280 280 280 280 280 281 281 282 282 282 282 282 281 281 281 281 281 282 284 285 286 286 286 286 286 286 285 285 285 284 283 282 280 278 276 275 275 274 276 280 282 283 284 284 284 284 284 284 284 281 277 275 274 274 274 274 275 275
Wind_Speed
4 4 4 3 3 3 3 3 4 5 3 2 1 1 2 2 2 2 3 3 4 3 3 2 2 2 1 1 2 2 3 2 2 2 2 2 2 2 2 2 1 1 1 3 4 4 4 4 3 3 3 3 3 3 5 5 6 6 6 6 6 6 6 6 6 7 7 7 7 6 6 6 5 5 6 6 6 5 5 5 5 5 5 5 5 6 5 5 5 4 3 3 2 1 2 2 1 0 1 1 1 0 1
4 4 4 3 2 2 2 3 4 5 4 2 1 1 1 2 2 2 2 2 3 3 4 4 4 3 2 2 3 4 3 2 2 2 2 2 1 1 1 0 1 2 3 4 4 3 3 3 3 3 4 3 4 4 5 6 6 6 6 6 6 6 6 6 6 6 7 6 6 7 7 6 5 5 5 5 5 5 5 5 5 5 5 5 6 6 6 6 5 4 3 2 2 1 1 2 2 2 0 1 1 1 1
4 3 2 2 1 1 1 3 4 6 5 3 2 1 1 2 3 3 2 1 2 2 4 5 4 2 2 3 4 5 4 3 3 3 2 2 2 2 2 2 2 3 3 3 3 2 3 3 3 4 4 4 4 5 5 5 6 6 6 6 6 6 7 7 7 6 7 7 7 7 7 6 5 5 5 5 5 5 5 5 5 6 5 5 5 5 6 6 5 4 2 2 2 2 1 1 1 2 2 2 2 2 1
4 3 2 1 1 1 2 3 4 7 7 6 4 3 3 3 3 2 1 1 1 1 3 3 3 2 3 4 5 6 5 4 3 3 2 2 2 1 2 2 2 2 1 1 2 2 3 3 4 4 4 4 4 4 5 5 6 6 6 6 6 7 7 7 7 7 7 7 7 7 7 6 6 6 6 6 6 6 6 6 6 6 6 5 5 4 5 5 5 4 3 3 2 3 1 0 0 1 1 2 2 1 1
4 3 3 2 1 1 2 3 4 5 5 5 4 4 3 2 1 1 1 1 1 2 3 2 2 2 3 4 5 5 4 2 2 2 1 1 1 1 1 1 2 2 2 1 2 2 3 3 4 4 4 4 3 4 4 5 6 6 7 7 7 7 7 7 7 7 8 8 7 7 7 7 7 7 6 6 6 6 6 6 6 6 6 5 4 3 4 4 4 4 4 4 4 3 3 1 0 1 1 0 1 0 0
3 3 2 2 1 1 1 2 2 2 1 1 1 2 1 1 1 1 1 1 2 3 3 2 1 2 2 3 3 3 2 0 1 2 2 2 2 1 2 2 2 3 3 2 2 2 2 2 2 2 3 3 3 3 4 4 5 7 7 7 7 7 7 7 7 8 9 8 8 8 8 8 8 8 7 7 6 5 6 6 6 6 6 5 5 4 4 4 4 3 4 3 3 3 4 3 2 1 1 1 1 2 1
3 3 2 2 2 2 2 2 2 1 2 2 1 1 1 0 0 1 2 2 2 3 2 1 1 1 0 1 2 2 1 1 1 1 2 2 2 2 2 2 2 2 1 1 1 2 1 1 1 2 2 2 2 2 3 4 5 5 5 6 7 8 9 9 9 9 9 9 9 8 8 9 9 10 9 7 6 5 6 6 6 6 5 5 5 5 5 5 5 4 4 3 3 3 3 3 4 2 0 1 1 2 1
2 2 1 1 1 2 2 2 1 2 2 1 1 1 2 2 2 2 2 2 2 2 1 0 1 1 0 1 1 1 1 1 1 1 1 1 1 1 1 1 1 1 1 1 1 0 1 1 1 2 2 2 2 2 3 4 4 3 4 5 7 9 10 10 10 10 10 10 10 9 10 10 11 10 9 8 7 7 7 7 6 5 5 5 5 5 6 6 5 5 5 5 4 4 3 3 4 4 2 1 0 1 2
1 0 1 2 2 1 0 0 1 2 1 0 1 1 1 1 1 1 1 1 1 1 1 0 0 1 2 3 3 3 2 2 2 2 1 1 1 2 2 2 2 2 2 2 2 2 2 1 1 1 2 2 2 1 2 3 3 3 4 5 7 9 9 10 10 11 11 11 11 11 11 11 11 10 10 9 9 8 7 7 6 6 5 5 5 5 5 5 5 5 5 5 5 5 4 3 3 3 3 3 2 0 2
2 2 2 2 1 1 1 1 1 1 0 1 1 1 1 1 1 1 0 1 1 1 1 0 0 1 2 3 3 2 1 1 1 1 2 2 2 2 1 2 2 2 2 2 2 2 2 2 1 1 2 2 2 1 1 2 3 4 4 5 7 8 9 10 11 11 11 12 12 12 11 11 11 11 11 11 10 9 7 7 6 6 5 5 5 5 4 4 4 4 4 4 4 3 4 3 3 2 3 3 3 2 1
0 0 0 0 0 0 1 1 1 1 1 2 2 2 2 1 1 1 2 2 2 1 0 1 1 2 2 1 0 1 1 1 2 2 2 2 2 2 2 2 1 1 0 0 0 1 1 1 1 2 2 2 2 2 3 3 3 3 3 4 5 7 8 9 10 11 12 12 12 13 12 12 12 13 12 12 11 9 8 7 6 6 6 5 5 4 4 4 4 4 4 3 3 2 3 3 3 2 2 3 3 2 2
1 0 0 0 0 1 1 1 1 2 2 2 2 2 2 2 2 2 2 1 1 0 0 1 2 2 0 1 2 2 2 2 2 2 2 2 2 2 2 3 3 3 3 2 2 2 2 2 2 2 2 2 2 3 3 3 2 3 3 4 4 5 7 9 9 9 11 11 12 13 13 13 13 13 12 12 11 10 8 7 6 5 6 5 4 4 4 4 4 4 3 3 2 2 2 2 2 3 3 3 3 2 2
0 1 0 0 1 2 1 1 2 2 1 2 3 3 3 3 2 2 1 1 1 1 1 2 1 0 2 2 2 1 1 2 2 2 2 2 2 2 2 3 3 3 3 3 3 2 2 2 2 2 2 2 3 3 3 3 3 4 4 4 4 4 6 7 8 8 9 11 12 13 14 14 13 12 12 12 12 10 8 7 6 5 5 5 4 4 4 4 3 3 3 3 3 3 2 1 1 2 3 3 3 2 2
1 1 1 1 1 1 2 2 2 2 2 3 3 3 3 2 2 1 1 1 1 1 1 1 2 2 3 2 2 1 1 1 2 1 2 2 2 2 2 2 2 3 3 3 3 2 2 2 2 2 3 3 3 3 3 3 3 4 4 4 4 4 5 6 7 8 9 10 12 13 14 14 13 11 11 11 11 10 8 7 6 5 6 5 4 4 3 4 4 4 4 4 3 3 2 2 2 1 2 3 3 3 2
2 2 2 2 2 2 2 3 3 3 3 3 3 3 2 2 1 0 0 1 1 2 3 3 3 3 3 3 2 2 2 2 2 1 1 1 1 1 1 1 1 1 2 3 3 2 2 2 2 2 2 3 3 3 2 3 3 4 4 4 4 4 4 5 6 7 9 10 11 11 12 13 13 11 10 11 11 10 8 7 6 5 5 4 3 3 4 4 5 6 5 5 4 3 3 2 2 2 2 3 3 2 2
2 2 3 3 3 3 3 3 3 3 3 3 3 3 2 1 1 1 2 4 4 5 4 4 4 4 3 3 3 3 3 3 3 2 2 1 1 0 0 0 1 1 2 3 3 2 2 1 1 1 2 2 2 2 2 2 3 5 4 4 4 4 4 5 5 6 8 9 11 11 11 11 11 10 9 9 9 9 8 7 6 5 4 4 4 5 5 6 6 7 7 7 5 4 3 3 3 4 4 3 3 3 3
3 3 4 4 4 4 4 3 3 3 3 3 2 2 1 1 2 4 5 6 5 5 4 4 4 4 3 3 3 3 3 3 3 3 3 2 2 1 1 1 1 2 3 3 3 2 2 1 1 1 2 2 2 2 2 2 3 5 4 4 4 4 4 5 5 5 6 7 9 9 9 9 8 9 8 7 7 7 6 5 5 4 4 5 6 8 8 7 7 7 7 7 7 5 5 4 5 6 4 4 4 4 3
4 4 4 4 4 4 3 3 2 2 2 2 1 1 2 3 5 6 6 5 5 4 4 4 3 3 2 2 2 3 3 2 2 2 2 2 1 1 0 1 2 3 3 3 3 3 2 2 2 2 2 3 3 2 2 3 3 4 4 4 4 4 4 5 5 5 5 5 6 6 5 5 5 6 5 5 4 4 4 4 5 5 5 6 7 8 8 7 6 6 7 7 7 7 6 6 6 7 5 4 4 4 4
3 3 3 3 3 3 2 1 2 1 0 1 2 3 4 5 6 6 5 4 4 4 3 3 3 2 2 2 2 2 2 1 1 1 2 2 2 1 2 2 3 4 3 3 3 3 2 1 2 2 3 4 4 3 3 3 4 4 4 4 4 4 4 4 5 5 5 4 3 2 2 1 2 2 2 3 4 6 5 5 5 5 5 6 7 7 6 5 5 5 6 6 6 6 6 6 6 7 5 4 4 4 4
2 2 1 1 2 1 1 1 2 1 1 1 3 4 5 6 5 5 4 4 4 4 4 4 4 3 3 3 2 2 2 1 1 1 2 2 3 2 3 3 4 4 4 3 3 2 2 1 1 2 3 3 3 3 3 3 4 4 4 4 4 4 4 4 4 4 3 3 2 2 1 1 2 2 3 4 6 6 5 5 4 5 6 6 6 7 6 6 5 5 5 5 4 4 5 5 5 6 5 5 4 4 4
1 1 2 1 1 1 2 3 3 2 2 3 4 5 5 5 4 4 4 4 4 4 4 4 5 4 4 3 3 2 2 1 1 2 3 3 3 3 4 4 5 5 4 4 3 2 2 2 2 2 2 3 3 2 3 3 3 4 4 4 4 4 4 4 4 3 3 3 3 2 1 1 2 3 3 4 5 5 4 4 4 5 6 7 7 7 7 6 6 5 5 5 5 5 5 5 5 5 5 4 4 3 3
3 3 4 5 5 4 4 4 3 2 3 4 5 5 5 4 4 4 4 4 4 4 4 5 4 4 3 3 3 2 2 1 2 3 3 3 3 3 4 5 5 5 4 3 3 2 2 2 2 2 3 3 3 2 2 2 3 3 3 3 3 3 3 3 3 3 3 3 3 3 2 2 2 3 3 3 4 4 4 4 4 5 6 7 7 7 8 8 7 6 6 5 5 5 5 5 4 4 3 3 3 3 2
3 4 4 4 4 4 3 2 2 4 5 5 5 4 4 4 4 4 4 4 3 4 3 3 3 2 2 2 2 2 2 2 3 3 3 2 2 3 4 4 5 4 4 3 3 2 2 2 2 2 2 3 3 2 2 2 2 2 3 3 3 2 2 2 2 3 3 3 3 3 3 3 3 3 3 4 4 5 5 5 5 6 7 8 9 9 9 9 9 7 6 5 4 4 4 4 3 3 2 2 2 2 2
2 2 2 2 2 3 3 4 5 5 5 5 4 4 4 4 4 4 4 3 3 2 2 1 0 1 2 3 3 3 3 3 3 2 2 2 3 4 4 4 4 4 3 3 2 2 2 2 2 2 2 3 3 2 2 1 1 2 2 2 2 2 1 1 1 2 3 3 3 3 3 4 4 4 5 5 6 6 6 7 7 8 9 9 10 9 9 8 8 7 5 4 3 3 3 3 3 2 2 2 2 1 1
6 6 5 5 6 6 6 5 5 5 4 4 4 4 4 4 4 3 3 2 2 1 1 1 2 2 3 3 3 3 3 3 2 1 3 3 4 4 4 4 4 3 3 2 2 2 2 2 2 2 2 2 2 2 1 1 1 1 2 2 2 1 0 1 2 2 2 3 3 3 5 6 6 6 7 7 7 7 7 8 8 9 9 9 9 8 8 7 6 6 4 3 3 3 3 3 2 2 1 1 0 1 1
5 5 4 4 4 4 4 4 4 4 3 4 4 4 4 3 3 2 2 2 2 2 2 3 3 2 3 4 4 4 4 3 2 2 3 4 4 4 3 3 3 2 2 2 2 2 2 2 2 2 2 2 2 1 1 1 1 1 2 2 1 1 1 2 2 2 3 3 4 5 7 7 7 7 8 8 8 8 8 8 8 9 9 9 8 7 6 5 5 4 3 3 2 2 2 2 2 2 2 1 1 2 3
3 3 3 3 4 4 4 4 4 3 4 4 4 4 3 3 2 2 2 3 3 3 3 3 4 4 4 5 5 5 4 3 3 3 3 4 4 3 3 2 2 2 2 2 2 2 1 1 1 2 2 2 1 1 1 1 1 2 1 1 1 1 1 2 2 3 3 4 5 5 6 7 7 8 8 8 8 8 8 8 8 7 7 7 7 6 5 4 3 3 3 2 2 2 2 2 2 2 2 2 2 4 4
4 4 4 5 5 6 5 4 4 4 4 4 4 3 2 2 2 3 3 3 3 4 4 4 4 4 4 5 5 4 3 3 3 3 3 3 3 3 3 3 3 3 2 2 1 1 1 1 1 2 1 1 1 1 1 1 1 1 1 0 1 1 2 2 2 3 3 4 4 5 5 6 7 7 7 7 7 7 7 6 6 5 5 6 5 5 5 4 4 4 3 2 2 2 2 2 2 1 2 2 3 5 4
4 4 5 6 6 6 5 5 4 4 4 3 2 1 2 3 3 4 4 4 4 4 4 4 4 4 4 4 4 5 4 4 3 3 3 3 3 3 3 3 3 3 2 2 1 1 2 2 2 1 1 1 2 2 2 2 2 1 1 0 1 2 2 2 2 3 3 3 4 5 6 6 7 7 7 7 7 6 5 5 4 4 4 5 5 6 5 5 4 3 2 2 1 2 1 1 1 1 2 3 4 5 5
3 4 5 5 5 5 5 4 3 3 2 1 1 2 2 3 3 3 3 4 4 4 4 4 4 5 4 5 5 6 5 5 4 4 3 3 3 4 4 3 3 3 2 2 2 2 2 2 1 1 0 1 2 2 2 2 2 1 1 1 1 2 2 2 2 2 3 3 4 5 6 7 7 7 7 7 6 6 5 5 5 4 5 5 5 5 5 4 4 3 2 2 1 1 0 1 1 2 3 4 4 4 4
4 4 4 4 4 3 3 2 2 1 1 2 2 3 3 3 4 4 4 5 5 5 4 4 4 5 5 5 5 6 5 5 5 4 4 3 3 4 3 3 3 3 2 2 2 1 1 1 0 1 1 1 1 1 1 2 2 2 2 2 2 3 3 3 3 3 3 3 4 4 5 5 5 5 5 5 5 5 5 5 6 6 6 5 5 4 4 4 4 3 2 1 1 0 1 2 4 5 6 6 6 5 4
4 4 4 3 3 2 1 1 1 2 2 2 3 3 3 4 4 5 5 6 6 6 5 4 4 4 4 4 4 4 4 4 4 4 4 3 2 3 2 2 2 3 3 2 2 1 1 1 1 1 1 1 1 1 1 2 2 2 2 2 3 3 3 2 2 2 3 3 3 4 4 4 4 4 4 4 4 4 4 4 4 5 5 5 5 5 5 4 4 3 2 2 2 2 3 5 8 8 7 6 6 5 4
3 3 2 1 1 0 1 1 2 2 2 2 2 3 3 3 4 5 5 6 7 7 5 4 3 3 4 4 4 4 4 4 4 4 4 3 2 2 2 2 2 2 2 2 2 1 2 2 2 2 1 1 1 1 1 1 1 1 2 2 3 3 2 2 1 1 2 3 4 4 4 4 4 4 3 3 3 4 4 4 4 4 4 5 5 5 5 5 4 4 3 4 4 5 5 6 7 6 5 4 4 4 3
1 1 1 1 2 2 2 2 2 2 2 2 2 2 3 4 4 5 6 6 7 6 5 4 4 4 4 4 4 4 4 3 3 3 3 3 2 1 2 2 2 2 2 2 2 2 2 2 2 1 1 0 1 1 1 1 1 1 2 2 3 2 2 2 1 2 2 3 4 4 4 4 4 4 4 3 3 4 4 4 4 4 4 5 5 5 6 6 6 5 5 5 5 4 4 3 3 2 2 3 3 3 2
2 2 2 3 3 4 4 4 4 4 3 3 3 3 4 5 5 6 6 7 8 6 5 4 4 4 4 4 4 5 4 4 3 3 3 2 2 1 2 2 2 2 2 2 2 3 2 2 1 1 0 1 1 2 1 1 1 1 2 2 2 2 2 2 2 2 3 3 4 4 4 4 4 4 4 4 4 4 4 5 5 5 5 5 5 5 5 6 5 4 3 3 2 2 2 2 2 1 2 3 3 2 2
3 4 4 4 4 5 5 5 5 5 4 3 3 3 4 5 6 7 7 7 7 6 5 5 4 3 4 5 5 5 5 4 4 3 3 2 1 1 2 2 2 2 1 1 2 1 1 1 1 0 0 1 1 2 1 1 1 2 2 2 2 2 3 3 3 2 3 4 4 3 3 3 3 3 3 3 4 4 4 5 5 5 5 5 5 4 3 3 2 2 1 2 2 2 2 2 2 1 2 2 2 2 2
3 4 4 4 4 5 5 6 5 5 4 3 4 4 5 5 6 6 6 6 6 6 6 5 4 4 4 4 4 5 4 4 3 3 2 2 1 1 2 2 2 1 1 1 0 0 0 1 1 1 0 1 1 2 2 2 2 2 2 2 2 2 3 3 2 2 3 3 3 3 3 2 2 3 3 3 4 4 4 4 4 4 4 4 3 3 1 1 1 1 1 2 2 2 1 1 2 2 2 2 2 2 2
3 3 3 3 4 5 5 5 6 5 5 5 5 6 6 6 6 6 6 6 6 6 6 5 4 3 4 4 4 4 4 3 3 2 2 2 1 1 2 2 2 2 1 1 1 1 1 1 1 1 1 1 1 2 1 2 2 2 2 2 3 3 3 3 2 1 1 2 3 2 2 2 2 3 3 3 3 4 4 3 3 3 3 3 2 1 0 1 1 1 1 2 2 2 1 1 2 2 2 3 3 2 2
4 4 4 4 4 5 5 6 7 7 7 7 7 7 7 7 7 6 6 6 6 6 6 5 4 3 4 4 4 4 3 3 3 2 2 2 2 2 2 2 2 2 1 1 1 1 1 1 1 1 1 1 2 2 2 2 2 2 2 2 3 4 3 3 2 1 1 1 2 3 2 3 3 3 3 3 3 3 3 3 3 3 2 2 1 1 0 0 1 1 1 1 2 2 2 2 2 2 3 3 3 3 4
4 4 5 5 5 5 5 6 7 8 8 7 7 7 7 7 7 7 6 6 6 6 6 5 4 4 4 5 4 4 3 3 3 2 2 3 3 2 2 2 1 1 1 1 1 1 1 2 2 2 2 2 2 2 2 2 2 2 2 2 3 4 4 3 2 2 1 2 2 3 3 3 3 3 3 2 2 2 2 2 2 2 1 1 1 1 0 0 1 1 2 2 2 2 2 2 2 3 3 4 4 5 5
4 4 5 4 4 5 6 7 8 7 7 7 7 7 8 8 8 7 7 7 7 7 6 5 4 4 5 5 5 4 3 3 2 3 3 3 2 2 1 1 1 1 1 1 1 1 2 2 2 3 2 2 3 3 3 2 2 2 2 3 3 4 3 3 2 3 2 2 2 3 3 2 2 2 2 2 2 2 2 2 1 1 1 1 1 1 0 1 1 2 2 2 2 3 3 3 3 3 4 4 5 5 6
5 5 5 5 6 6 7 7 6 6 6 7 8 8 8 8 8 8 8 8 8 8 6 5 5 5 5 5 5 4 3 3 3 3 3 2 1 1 1 1 1 1 2 2 2 2 3 3 3 3 3 3 3 3 3 3 3 3 3 3 3 4 3 3 3 3 3 2 2 2 1 1 1 1 1 1 1 1 1 2 2 2 2 1 1 1 1 1 1 2 2 2 3 3 3 3 4 4 4 5 5 6 6
5 6 7 6 6 6 5 5 5 6 7 8 8 8 8 8 8 8 8 8 8 8 7 6 5 5 5 5 5 4 3 3 3 3 2 1 1 0 1 1 1 2 2 3 3 3 4 4 4 4 4 4 4 4 4 3 3 3 3 3 3 3 3 3 3 3 3 2 1 1 1 1 1 1 1 1 1 1 2 2 2 2 2 2 1 1 1 2 2 2 2 2 2 3 3 3 4 4 4 5 5 6 6
6 7 7 6 5 5 5 6 6 7 7 8 8 8 8 8 8 8 8 8 8 8 7 6 5 5 5 6 6 4 3 3 2 2 1 1 1 1 1 2 3 3 3 3 3 4 5 5 5 5 5 5 4 4 4 3 3 3 3 3 2 2 3 3 3 3 2 1 1 1 1 1 1 1 1 1 1 1 1 2 2 2 2 2 2 2 2 2 2 2 2 2 2 2 3 3 4 4 4 5 5 6 6
6 6 6 6 6 6 6 6 7 7 8 8 8 8 8 8 8 9 9 8 8 8 8 7 6 5 5 6 5 4 3 2 2 1 1 1 1 2 2 3 4 4 4 4 5 6 6 6 6 6 6 5 4 3 3 3 3 3 3 3 3 3 2 2 1 1 1 1 1 1 2 2 1 1 1 1 2 2 2 2 2 2 2 2 2 2 2 3 3 3 2 2 2 2 3 3 4 4 4 5 5 5 5
6 6 6 6 6 6 6 6 7 7 8 8 8 8 8 8 8 8 8 8 8 8 8 8 7 5 5 4 4 4 3 2 2 1 1 1 1 2 3 4 5 5 5 6 7 7 7 7 7 6 6 5 4 4 4 4 4 3 3 3 3 2 1 1 1 1 1 1 1 2 2 2 1 1 1 1 2 2 2 2 2 2 2 2 3 3 3 3 3 3 3 3 2 3 3 3 4 4 4 4 5 5 5
8 7 7 7 7 7 7 7 7 7 8 8 8 8 8 8 8 7 7 7 7 7 8 8 8 7 5 4 4 3 2 2 2 1 1 2 2 3 4 5 5 6 7 7 7 7 7 7 6 5 5 4 4 4 4 4 4 3 3 2 1 1 1 2 1 1 1 1 1 1 1 2 2 1 1 1 1 2 2 2 2 2 2 2 3 3 3 3 3 3 3 3 2 2 3 3 4 4 4 4 5 5 5
7 7 7 7 8 8 8 8 7 8 8 8 8 8 8 8 8 7 7 7 7 7 8 9 9 8 7 5 4 2 2 2 2 2 2 2 3 4 4 5 6 6 6 6 6 5 5 5 4 4 4 4 4 5 4 4 3 3 1 1 2 3 3 2 2 1 1 0 0 0 1 1 1 2 2 2 1 1 2 2 2 2 2 2 3 4 3 3 3 3 3 3 2 2 3 3 4 4 4 4 5 5 6
8 8 9 9 8 8 8 8 8 8 8 8 8 9 8 8 8 8 7 7 7 7 7 8 9 8 6 5 3 2 2 2 2 3 3 3 4 5 5 6 6 6 6 5 4 3 3 3 3 3 3 4 4 5 4 3 2 1 2 2 3 3 3 2 1 1 1 0 0 0 0 0 0 1 2 2 2 2 2 2 2 1 2 3 4 4 4 4 3 3 3 2 2 2 3 3 3 4 4 4 5 5 6
9 9 10 9 9 9 9 8 8 8 9 9 9 8 8 8 8 8 9 8 8 8 8 8 7 6 5 4 3 2 2 3 3 4 4 4 5 5 6 6 6 6 5 4 3 2 3 3 3 4 4 5 5 5 3 2 2 3 3 3 2 2 2 2 1 1 1 0 0 0 0 1 1 1 1 1 2 2 2 2 2 2 3 3 4 4 5 6 5 4 3 3 2 2 2 3 3 3 4 4 4 5 5
10 10 10 9 9 9 9 9 9 10 10 10 9 8 8 8 8 8 9 8 8 8 9 9 8 6 5 3 3 3 4 4 4 4 5 5 5 6 6 6 6 5 4 3 3 3 3 4 4 5 6 6 5 3 2 2 3 3 3 2 2 2 2 2 1 1 1 1 1 0 1 1 1 1 0 1 1 2 3 3 2 3 3 3 3 4 6 7 8 8 7 5 3 2 2 3 3 3 3 4 4 4 5
10 9 9 9 10 10 10 10 10 10 10 10 9 9 8 8 8 8 8 8 8 8 9 9 8 7 5 4 4 4 5 5 5 5 5 6 6 6 6 5 5 4 3 3 3 3 3 4 5 5 4 2 1 2 3 3 3 2 2 3 3 2 2 2 2 1 1 1 1 1 1 2 1 1 0 1 1 2 3 3 4 4 3 3 4 6 8 9 9 9 9 8 5 3 2 2 3 3 3 4 4 4 4
9 9 9 10 10 10 10 10 10 10 10 9 9 8 8 8 8 8 8 8 8 9 9 8 7 6 5 4 5 5 5 6 6 5 6 6 7 6 6 5 5 4 4 4 4 3 3 3 2 0 2 3 4 4 3 3 2 2 3 3 3 3 2 2 2 1 1 1 1 1 1 2 2 1 1 1 1 2 3 4 5 5 4 5 6 8 10 10 10 10 10 9 7 4 2 2 2 3 3 4 4 4 5
9 10 10 10 11 11 10 10 10 9 9 9 9 9 9 9 9 8 8 9 9 10 9 8 6 6 4 4 4 4 5 5 5 5 6 6 7 7 6 5 4 4 3 2 1 1 1 2 3 4 4 4 3 2 2 2 3 3 3 3 3 2 2 2 1 1 1 0 1 1 1 2 2 2 2 2 3 4 5 5 5 5 5 6 7 10 10 11 10 10 9 9 8 7 3 2 2 3 3 3 4 4 5
10 10 11 10 10 10 10 9 9 9 9 9 9 9 8 7 7 7 8 9 10 10 9 7 6 4 3 3 3 4 5 5 5 5 6 6 6 5 4 3 3 2 2 3 3 4 4 4 4 3 2 1 2 2 3 3 3 4 3 3 3 2 1 0 1 1 0 1 1 1 1 2 2 2 3 3 4 5 5 6 6 6 5 6 8 10 10 10 10 9 9 8 8 8 5 3 2 3 3 4 4 5 5
11 10 10 9 8 8 8 8 9 9 9 9 9 10 8 7 6 6 8 9 10 8 7 6 4 2 2 3 4 4 4 4 4 4 5 4 4 4 4 3 2 2 3 3 4 4 3 2 1 1 1 1 2 2 3 4 4 4 3 2 2 1 1 1 1 1 1 1 1 1 1 2 2 3 3 4 4 5 6 6 6 6 6 6 7 10 10 10 9 9 8 9 9 10 7 4 3 3 4 4 4 5 6
11 11 9 8 7 7 7 7 8 9 9 8 8 9 8 6 5 6 8 9 9 7 5 4 3 2 2 3 3 3 3 3 2 2 3 4 4 4 3 2 1 1 2 3 3 3 2 1 0 0 1 1 3 4 4 4 4 3 2 1 1 1 1 1 0 1 1 2 2 2 2 3 3 3 4 4 4 5 5 5 5 6 6 6 7 9 10 10 9 9 9 9 10 11 8 6 4 4 4 4 5 6 7
10 9 9 8 7 7 7 7 8 8 9 9 8 8 7 6 6 7 8 8 7 5 4 3 3 2 2 2 2 2 2 2 3 3 3 4 4 3 2 1 0 1 2 3 3 3 2 2 1 1 2 3 3 4 4 3 3 2 1 1 1 1 1 1 0 1 1 2 2 3 3 3 4 4 4 5 5 5 4 4 5 5 5 6 7 9 9 9 9 9 9 10 11 12 9 6 4 4 4 4 5 6 6
10 8 8 7 7 8 9 9 9 8 8 8 8 8 8 8 9 9 7 6 5 4 3 2 2 1 1 1 1 1 2 2 3 3 3 3 3 3 2 2 1 1 2 2 3 3 2 2 2 3 3 3 3 3 3 2 2 1 1 1 1 1 1 1 1 1 1 2 2 3 3 3 4 4 5 5 5 4 3 3 4 4 4 6 8 9 9 9 9 9 10 11 12 12 8 5 4 4 4 5 6 6 7
Wind_Direction
285 281 271 258 243 233 220 190 167 157 155 159 175 204 181 162 141 114 111 118 127 139 144 153 172 199 177 157 142 137 123 108 91 85 84 75 60 44 35 24 5 348 282 258 250 240 241 244 250 257 254 253 253 248 243 239 235 230 224 219 216 218 214 213 213 212 209 204 201 203 204 203 202 206 205 205 204 202 195 192 192 191 193 196 198 199 198 197 197 196 188 185 187 177 148 139 132 64 335 327 320 133 140
284 280 273 263 247 231 217 185 163 148 138 136 149 195 167 159 153 149 134 131 137 142 149 167 187 205 173 162 162 162 152 141 129 131 124 120 116 111 80 90 201 225 231 237 240 237 233 238 249 261 258 256 252 248 246 243 240 235 232 227 223 221 217 214 214 216 212 208 206 208 209 209 210 212 206 203 202 205 201 198 196 196 199 202 203 201 196 195 196 194 183 167 152 135 129 129 131 132 190 269 275 254 164
306 304 298 290 266 206 189 178 162 144 139 148 184 213 171 166 171 178 160 135 122 126 159 177 189 183 158 168 181 186 176 166 155 154 152 159 165 172 169 176 192 203 213 224 233 233 226 229 240 254 252 246 242 243 247 248 247 243 241 238 234 228 221 217 216 218 212 211 211 212 210 210 212 215 210 205 204 207 203 200 200 201 204 206 205 201 196 194 193 188 177 147 121 109 90 82 119 142 177 210 230 222 182
327 334 339 354 38 112 164 174 166 152 153 164 183 189 180 180 183 173 139 100 92 126 184 188 182 141 159 180 196 206 198 177 149 146 157 168 166 149 154 162 173 188 188 211 226 220 209 209 219 234 237 235 233 236 243 246 246 243 243 244 243 240 232 227 224 222 215 214 215 215 213 211 211 212 210 208 208 209 201 199 201 204 209 209 207 201 199 196 191 177 172 163 147 135 137 83 22 99 179 207 221 204 183
330 338 350 10 40 95 155 169 168 160 161 163 166 166 174 177 161 88 88 100 149 196 210 204 176 150 174 191 204 215 212 186 135 122 128 117 92 78 100 117 133 154 165 194 223 224 209 208 215 226 233 232 226 224 232 236 237 234 235 238 241 244 241 239 235 230 222 218 217 217 216 215 213 211 209 210 210 209 199 198 201 201 204 207 207 202 197 195 192 178 175 173 167 153 156 156 42 26 29 326 306 354 185
325 335 352 11 36 72 124 147 151 146 105 87 108 141 150 116 62 74 184 205 212 216 222 212 181 162 189 213 228 237 233 178 90 76 91 99 111 133 146 151 158 175 178 183 205 246 234 229 229 238 239 233 224 217 225 234 237 233 229 231 235 238 239 240 240 238 230 224 221 221 219 218 216 213 212 212 211 205 200 201 202 197 197 200 203 203 198 196 194 186 180 176 172 161 151 145 136 31 9 1 351 343 356
320 336 355 20 52 87 122 137 135 72 40 45 75 128 139 146 201 208 217 222 225 229 231 219 158 120 210 269 283 305 339 39 72 82 109 127 144 160 167 169 169 176 175 172 184 227 275 324 331 304 291 271 244 230 228 236 240 238 230 229 231 232 231 234 237 239 234 229 226 227 225 222 219 216 215 213 210 205 204 204 202 199 196 196 196 196 196 196 193 186 184 181 174 169 154 141 135 133 72 345 333 322 343
322 346 22 56 95 131 149 151 120 27 51 83 136 173 193 209 221 227 232 236 240 248 263 33 88 106 178 239 251 253 207 165 162 160 142 128 119 105 67 40 29 34 35 34 38 153 10 3 353 331 319 304 280 255 242 242 245 247 239 236 233 229 228 230 234 237 235 232 230 230 230 228 224 220 218 215 211 208 205 203 201 201 199 196 194 193 195 195 193 186 185 180 174 164 158 143 138 144 163 182 251 310 324
235 150 135 151 166 179 184 39 27 24 58 122 201 213 225 242 270 287 307 305 291 276 293 341 153 183 202 208 210 207 189 174 165 159 130 100 72 42 27 19 15 16 15 12 7 6 15 19 19 7 322 305 293 270 254 251 249 245 242 238 234 230 229 230 232 236 235 233 231 230 232 231 229 225 223 219 215 211 205 200 197 195 196 196 196 195 196 193 188 182 178 173 167 161 161 160 157 149 155 159 163 312 324
193 190 172 169 179 329 346 354 1 1 338 325 330 329 342 349 351 342 307 252 242 244 254 308 297 246 223 212 202 184 161 141 128 114 101 93 86 75 50 33 23 17 8 3 2 356 348 350 351 341 300 291 287 275 258 250 244 235 237 238 236 232 231 232 233 236 236 234 232 230 231 231 230 228 225 221 217 212 207 201 196 191 193 194 195 194 189 183 177 174 172 173 172 167 159 160 163 156 145 143 141 122 12
209 191 110 54 48 344 322 319 319 319 338 345 344 337 319 298 256 220 211 210 213 234 336 313 267 243 233 223 156 89 90 92 95 96 94 93 96 106 108 110 113 122 162 290 292 282 284 274 259 249 248 255 265 271 260 254 252 253 255 251 243 235 233 233 235 238 237 236 234 232 230 230 229 227 224 221 217 213 208 201 196 192 192 191 189 183 177 175 174 176 176 177 174 157 144 143 148 156 136 124 119 115 121
21 97 33 56 133 196 234 280 324 347 349 334 310 287 273 258 238 217 209 199 179 60 254 236 233 230 246 37 46 58 75 89 100 107 107 107 109 121 136 151 166 179 185 192 197 200 230 240 236 230 236 238 245 260 261 263 272 282 279 273 262 246 237 235 237 242 240 238 236 234 232 230 229 228 225 221 217 214 208 202 194 190 188 184 179 173 175 176 173 167 161 150 138 122 118 126 135 144 129 113 106 112 132
349 194 250 258 212 202 245 297 327 336 307 276 268 268 265 256 244 231 204 158 142 182 207 217 222 19 46 47 48 58 89 103 109 113 119 125 133 146 153 167 182 195 196 198 197 194 223 246 254 251 256 253 248 252 264 274 281 282 280 280 277 269 250 240 238 244 243 240 237 235 232 230 228 228 226 222 218 214 208 201 193 185 181 178 174 171 172 166 150 126 107 97 95 93 90 92 107 123 118 112 110 119 136
313 299 310 317 309 267 288 297 296 270 248 247 254 266 266 259 248 238 183 165 169 177 137 64 45 38 42 44 45 43 76 90 95 102 121 136 149 157 164 181 199 210 218 217 213 203 216 237 253 258 259 261 263 262 271 278 283 281 281 283 283 281 269 256 248 246 247 244 239 236 233 230 227 225 224 220 216 213 210 204 195 182 177 173 167 158 151 140 128 116 103 90 81 75 69 64 63 80 96 104 111 124 133
309 306 306 303 294 276 271 271 267 257 252 252 256 261 259 255 244 224 133 94 72 56 49 43 39 37 33 27 20 10 26 39 50 58 77 116 148 159 170 189 212 225 243 245 241 224 221 227 242 254 260 267 272 274 278 284 286 285 286 285 284 283 283 276 267 258 255 251 247 242 236 232 228 224 223 220 217 214 212 205 194 179 168 155 136 118 116 118 119 119 115 107 93 77 67 60 55 52 62 74 87 104 111
289 283 276 269 261 250 246 253 261 268 264 261 258 256 259 266 295 37 48 47 43 42 41 40 38 36 24 12 4 0 9 17 21 17 11 1 357 19 27 344 312 276 270 271 271 258 249 247 253 264 274 276 275 275 283 290 290 289 289 288 287 288 290 290 286 278 266 259 254 250 243 236 231 226 225 221 217 214 210 200 184 166 148 130 114 106 103 103 104 107 106 103 98 86 75 67 61 55 52 52 55 64 76
275 268 257 254 253 252 256 264 270 273 268 265 265 272 290 353 31 43 46 44 40 39 41 42 42 38 18 2 355 356 2 8 11 3 351 347 348 6 7 324 284 263 268 276 284 288 287 288 289 289 289 287 284 282 292 296 294 292 292 294 296 297 298 299 299 295 283 271 262 257 250 242 234 229 229 223 215 207 197 181 159 141 129 118 111 106 100 95 92 93 92 90 87 83 76 69 63 60 55 47 42 48 56
275 268 260 258 261 269 277 275 268 259 269 284 310 345 28 42 45 47 46 43 40 39 42 46 46 37 6 348 345 352 359 5 6 356 331 322 322 347 280 254 251 246 252 264 277 284 290 303 313 315 310 306 305 308 314 310 304 300 301 303 304 301 303 304 305 302 297 288 277 269 262 249 236 228 226 215 195 174 158 144 133 129 119 110 104 100 97 96 94 90 89 87 85 83 79 72 66 63 60 55 50 51 53
282 276 276 277 281 290 281 251 223 222 263 1 23 37 50 52 50 46 46 44 41 37 42 48 48 28 356 345 348 356 359 1 356 326 292 282 273 241 238 243 245 238 237 243 254 263 272 297 323 327 318 314 314 318 318 314 309 307 306 305 303 302 306 308 307 306 307 308 310 310 290 246 215 205 190 160 141 132 128 127 127 121 106 98 96 97 98 99 100 98 97 95 92 89 81 72 65 62 59 54 49 47 45
284 284 299 313 312 306 243 189 175 165 117 68 53 53 55 53 48 42 43 44 42 35 41 48 46 26 6 359 0 359 355 344 313 279 262 254 244 232 235 239 239 233 230 230 232 232 233 248 286 303 300 300 302 307 306 304 304 305 303 304 305 308 311 312 313 315 322 332 343 355 14 119 135 129 120 122 123 124 123 122 116 106 99 97 99 101 101 102 103 103 99 92 84 76 69 63 58 55 54 49 44 39 35
240 199 159 161 179 198 177 169 164 152 104 70 59 56 51 45 37 33 37 39 39 34 38 44 43 27 8 358 352 348 333 308 281 267 250 239 229 226 229 230 230 228 228 225 220 208 204 210 228 248 265 273 277 284 289 293 297 301 304 309 313 316 317 320 325 334 341 349 354 353 9 86 117 115 116 120 122 120 113 106 103 103 105 105 102 99 98 97 94 87 78 71 66 61 59 57 55 52 50 48 44 39 32
206 189 176 174 176 179 175 169 157 120 71 55 49 46 39 32 27 27 30 32 33 32 35 42 42 27 357 337 325 314 290 262 249 250 242 232 222 222 225 225 225 225 226 221 211 197 200 206 213 225 248 257 262 264 273 283 292 300 304 308 312 315 322 330 336 339 344 351 354 349 358 34 86 104 113 114 110 104 101 100 101 104 103 98 92 87 82 78 73 69 65 63 62 61 61 61 62 61 57 53 48 43 29
210 201 193 187 183 181 168 138 89 58 48 43 39 34 28 25 24 26 25 26 28 26 29 38 44 15 314 293 281 271 252 237 232 240 251 252 240 229 227 225 225 225 224 216 203 196 204 208 210 216 238 250 255 254 258 266 276 284 286 288 290 298 316 331 338 338 351 356 356 352 4 24 47 65 82 89 90 90 93 96 97 95 89 84 80 76 72 70 69 70 70 70 70 70 70 71 73 73 72 65 57 46 20
288 309 330 339 352 11 27 34 36 35 37 37 34 29 25 24 25 25 21 18 15 11 8 12 307 271 271 266 260 253 244 236 234 253 297 292 268 242 234 230 229 228 225 214 201 200 206 210 213 218 228 238 247 256 259 261 257 256 261 263 265 268 297 339 359 7 17 15 10 11 32 44 50 55 64 74 81 85 85 87 87 86 83 80 78 76 76 77 78 81 85 87 89 88 86 85 83 81 79 72 62 41 326
352 353 354 357 2 8 15 22 29 33 36 37 36 32 28 26 23 15 5 355 343 311 269 241 236 257 271 270 265 256 252 251 262 323 312 294 274 255 243 238 236 234 229 218 205 202 207 212 219 223 225 228 236 252 265 267 256 246 253 261 266 263 336 50 46 47 49 43 41 45 58 61 61 60 62 67 72 77 79 79 79 80 81 82 83 85 88 90 94 100 104 107 106 101 99 98 100 103 101 103 122 243 248
347 346 347 353 3 11 17 23 30 36 38 39 39 35 29 21 8 343 324 305 280 254 240 231 231 243 261 266 265 260 265 282 310 321 294 279 270 259 251 247 249 248 240 227 215 206 207 214 227 240 238 234 231 233 243 253 258 251 257 270 291 328 68 74 69 62 63 61 60 61 68 70 68 65 64 64 65 67 71 74 76 79 84 88 93 98 102 106 110 113 110 107 105 107 115 124 135 145 154 179 217 235 240
337 332 339 353 6 14 18 22 27 35 40 40 38 33 23 2 332 300 283 270 259 249 239 233 233 235 244 255 261 264 279 301 308 292 277 271 269 268 266 262 259 256 248 237 222 211 211 222 243 260 260 260 259 251 251 261 265 261 264 287 352 34 64 78 82 77 73 72 71 70 74 77 77 74 71 68 66 65 67 71 75 81 88 96 104 110 114 113 109 103 97 98 108 125 139 150 159 167 172 200 231 241 243
340 338 346 358 9 16 18 23 30 40 44 42 36 23 358 316 287 270 258 255 254 253 248 246 245 245 250 259 269 280 295 301 296 286 278 275 275 280 277 269 261 256 253 247 233 209 206 219 238 255 275 296 313 326 327 310 291 278 284 4 61 65 64 77 88 93 87 85 84 82 82 83 83 83 80 77 74 70 69 70 76 84 96 104 109 109 105 98 95 95 97 107 129 150 157 162 170 179 187 213 233 240 242
347 349 360 9 15 19 21 29 38 48 50 46 34 346 290 274 266 257 249 248 251 253 254 260 268 273 280 290 299 306 307 305 302 298 292 286 280 276 272 270 268 263 256 246 229 209 206 210 217 233 288 318 330 339 337 320 304 299 316 33 78 79 69 74 88 104 101 98 96 96 93 92 92 92 92 91 89 86 82 81 83 92 98 98 96 93 91 93 98 108 117 133 153 164 162 167 191 222 218 226 233 236 236
0 8 17 22 26 27 29 33 37 45 55 62 248 257 264 268 268 268 266 266 267 267 268 277 288 297 308 314 314 311 313 314 313 307 298 286 273 263 263 268 274 272 261 246 228 214 209 208 204 178 338 337 335 344 337 330 325 333 347 29 71 77 74 73 77 90 96 98 100 102 102 102 103 104 106 109 111 113 116 120 120 115 104 97 95 98 107 115 124 133 142 151 157 158 177 250 252 244 238 237 237 238 233
21 28 33 39 43 45 42 35 20 323 268 257 259 266 277 287 298 308 309 303 295 289 285 285 290 298 303 303 302 304 310 314 313 307 298 281 264 256 258 265 272 275 274 270 261 241 227 213 153 83 54 357 337 351 357 355 353 356 10 47 74 83 80 75 73 78 86 90 91 91 94 97 99 102 107 114 121 128 135 135 130 122 119 119 122 127 133 139 145 149 153 159 172 212 250 248 242 236 234 232 233 235 231
33 41 48 56 63 66 56 10 303 289 285 283 282 283 291 301 310 315 311 304 295 285 277 271 270 278 280 281 285 295 304 307 308 305 298 280 257 251 259 265 272 279 286 292 299 311 352 29 36 38 31 18 9 26 39 34 24 14 30 59 78 86 84 81 82 90 98 100 97 90 88 88 90 91 96 106 116 124 127 126 125 127 132 137 142 145 148 152 157 160 165 181 199 211 224 227 226 224 222 223 226 232 232
43 56 62 68 75 174 253 270 281 292 297 300 300 298 300 300 298 296 291 285 278 271 266 263 263 266 271 277 285 295 298 301 303 301 297 285 264 252 263 270 276 284 290 300 318 349 17 30 30 25 22 23 38 65 74 70 61 49 65 79 86 88 94 103 113 112 114 114 112 108 107 107 107 108 113 120 128 132 135 137 139 144 148 154 158 160 163 169 175 178 188 199 207 210 218 222 222 219 213 217 226 234 237
34 47 7 314 296 284 272 264 261 258 256 258 269 279 280 279 278 277 274 270 266 263 268 277 285 290 295 299 304 307 304 302 298 296 291 286 279 266 268 275 281 286 295 322 354 13 20 22 20 16 20 80 107 102 101 102 106 102 100 101 103 108 123 131 130 121 120 117 116 119 123 126 128 130 137 146 153 154 156 160 163 167 170 173 177 179 182 187 191 195 199 205 209 213 221 227 227 210 208 218 228 234 237
339 324 321 317 311 303 290 274 260 251 247 247 252 259 263 263 263 263 262 263 265 272 286 298 306 312 311 311 311 309 302 300 298 295 288 287 288 284 271 270 273 277 310 350 10 14 9 5 1 349 312 143 129 116 113 113 117 114 113 117 125 137 137 135 135 140 133 126 125 130 135 138 141 147 155 165 173 176 176 177 180 183 186 189 193 196 197 198 200 203 210 218 225 228 236 245 246 219 212 220 227 229 225
330 328 328 324 316 308 296 285 275 268 270 272 273 270 265 260 256 254 259 268 279 298 311 317 319 318 308 302 299 296 295 298 301 299 294 294 295 288 274 266 264 275 322 355 8 5 347 335 319 283 214 136 121 114 114 115 115 116 124 136 144 146 137 143 153 162 145 139 139 145 147 150 154 161 169 178 187 194 195 195 196 197 197 200 203 206 201 192 186 188 211 234 245 243 237 235 230 208 201 210 220 223 210
322 320 318 312 305 297 292 290 289 290 290 287 281 273 268 263 261 262 273 288 304 316 319 319 318 315 303 293 287 284 287 289 290 287 287 289 287 275 262 255 252 259 284 302 302 246 264 266 256 222 170 120 111 113 120 124 127 133 144 150 151 144 144 154 166 171 149 146 149 154 157 160 164 173 183 190 198 207 211 213 213 213 214 215 218 220 198 162 153 176 216 243 252 254 236 211 196 186 188 201 213 218 208
287 283 282 280 279 280 286 293 298 299 291 280 272 269 269 272 277 284 295 305 311 314 312 310 309 308 298 287 278 270 271 271 269 262 261 260 255 238 233 234 232 225 225 224 219 209 206 204 196 179 151 132 127 129 141 144 148 154 161 157 149 144 147 152 159 162 151 151 154 161 166 173 182 191 198 203 210 218 223 227 230 234 234 236 239 240 185 129 142 204 233 252 262 270 260 218 187 181 188 201 214 222 223
259 257 256 259 264 274 286 292 293 288 281 275 273 273 278 284 290 297 302 306 306 305 302 301 300 298 288 280 272 261 257 258 258 249 238 233 228 223 223 225 226 221 212 210 206 196 187 182 173 161 159 155 151 154 166 166 164 168 180 169 156 144 143 144 146 145 158 172 175 175 180 189 196 203 208 215 223 234 238 243 248 254 258 263 274 302 60 108 151 211 223 232 243 258 256 236 202 186 194 205 215 223 231
255 250 248 251 259 273 280 278 276 274 275 277 281 286 291 295 299 303 306 306 304 300 297 295 293 288 276 271 269 266 256 252 250 243 229 222 220 222 226 231 236 241 230 221 206 187 181 178 172 167 171 171 169 170 183 182 177 177 186 177 158 141 143 145 147 150 179 202 205 196 194 196 200 205 210 218 231 246 253 257 262 274 291 307 323 329 7 163 179 194 200 203 212 229 240 235 219 203 206 210 218 224 231
256 252 249 249 252 257 257 258 261 267 278 287 293 297 299 300 303 305 306 305 302 298 294 291 285 276 266 263 263 265 258 249 240 234 224 219 217 228 248 272 290 270 250 239 220 196 188 185 181 177 180 178 179 181 189 190 188 186 181 167 151 143 147 151 158 169 188 206 217 218 208 201 196 200 205 216 235 258 274 289 305 321 324 319 309 295 279 229 202 193 191 192 199 214 228 229 226 219 218 221 225 228 232
263 262 258 252 247 245 249 256 268 283 292 297 299 298 298 299 300 301 300 298 296 293 289 281 272 265 263 262 261 259 254 245 235 230 225 216 208 229 291 308 294 259 246 238 225 209 202 196 192 187 186 185 186 188 193 195 193 187 175 162 155 153 154 163 177 196 200 208 219 237 234 217 193 212 233 250 278 307 331 341 342 331 312 296 281 270 270 260 242 217 197 193 197 209 222 228 230 228 229 231 233 235 236
266 265 260 257 255 259 272 286 296 299 297 295 293 292 293 295 296 296 294 291 289 287 281 272 262 257 262 264 264 258 250 241 232 229 228 215 183 178 256 258 250 241 239 233 226 221 216 208 200 192 190 190 193 194 196 196 194 187 175 170 168 168 166 176 192 212 216 220 227 254 293 328 2 356 347 352 358 3 355 341 323 305 295 286 276 265 264 262 259 250 228 213 209 216 225 231 234 234 237 239 240 241 241
260 261 266 274 284 296 301 300 297 292 289 287 286 287 289 291 292 292 289 287 284 282 278 271 260 250 254 258 260 257 248 238 230 226 223 209 182 182 216 228 232 230 230 226 222 222 221 215 206 196 193 194 195 197 195 195 193 190 180 175 178 191 191 193 200 216 232 251 291 310 334 356 14 31 15 1 350 342 325 308 298 294 294 295 291 281 273 269 266 265 257 246 238 236 240 241 242 241 243 244 245 246 246
265 274 286 294 299 298 293 289 286 284 284 284 285 285 285 285 286 286 285 283 282 281 280 275 266 250 246 249 254 256 249 239 231 222 213 203 197 193 215 226 230 229 225 222 220 219 217 213 207 200 195 193 193 193 190 190 192 195 184 181 189 207 208 202 193 211 285 325 341 355 356 356 359 25 14 337 317 308 305 300 298 303 309 311 308 299 289 281 276 272 267 259 252 248 250 252 251 249 249 250 249 249 249
278 286 290 291 290 289 286 284 283 284 285 286 286 286 285 283 280 278 277 277 277 278 279 277 271 260 250 249 253 256 247 237 231 227 213 208 209 210 223 230 234 234 229 226 224 220 214 209 206 201 195 190 187 186 187 190 193 195 190 192 197 206 193 116 73 54 22 358 352 353 345 333 321 326 337 322 312 313 311 311 316 330 329 322 314 305 295 286 279 273 267 260 252 248 248 249 252 253 255 255 254 253 252
279 283 285 286 286 285 284 284 285 287 288 288 289 290 289 286 282 276 272 270 269 270 272 272 272 268 262 259 257 253 236 225 223 226 218 214 216 221 229 233 237 238 236 232 228 222 214 208 203 198 193 186 183 184 188 190 192 195 197 196 184 90 71 66 62 55 45 24 357 336 320 311 312 325 338 339 334 332 326 332 344 359 339 319 305 295 286 280 274 269 261 252 244 242 245 247 249 250 254 258 260 261 260
282 283 284 283 282 281 281 283 285 287 288 290 291 291 290 289 287 284 278 273 270 267 267 268 268 268 265 261 255 243 215 207 214 223 218 218 220 225 232 236 239 240 241 239 235 225 215 207 200 196 192 188 186 186 189 191 192 191 173 96 63 59 62 63 61 60 58 44 349 287 295 312 328 339 344 348 355 356 343 341 342 348 317 292 281 273 265 260 258 259 254 246 236 234 244 248 250 251 255 260 265 269 271
286 283 280 278 277 277 280 282 285 287 289 290 290 289 289 289 290 290 288 285 282 279 275 270 266 264 260 253 240 211 190 199 214 222 220 222 225 229 234 238 241 243 244 244 240 227 214 206 200 194 192 193 193 192 192 189 178 134 82 69 66 65 67 68 69 69 67 83 171 174 153 110 41 4 348 343 340 345 338 326 314 299 272 262 258 255 252 252 253 248 252 250 246 243 249 253 255 257 258 263 268 274 278
284 280 277 275 275 276 278 280 283 285 285 285 285 285 285 286 288 290 289 289 287 285 282 277 271 263 254 241 215 181 187 203 214 220 222 225 229 233 238 241 244 244 245 244 239 223 211 204 199 194 196 197 199 197 188 161 108 78 76 76 77 73 71 69 65 54 32 21 33 81 110 111 104 83 9 334 324 323 315 300 278 263 253 251 252 255 269 283 294 295 295 286 271 266 266 267 267 265 263 263 266 270 276
281 279 277 276 275 274 274 275 277 278 278 278 278 278 279 281 283 285 286 285 283 281 280 277 273 264 253 231 199 179 193 206 213 214 220 227 233 237 242 246 247 243 240 236 229 217 207 202 201 201 201 200 198 187 133 88 75 74 83 86 83 73 62 51 41 25 7 357 357 14 37 47 54 70 65 300 301 304 305 300 292 281 275 273 277 288 305 314 319 319 317 311 298 282 278 278 278 276 268 265 264 266 269
279 279 278 277 275 273 272 272 272 272 273 274 274 275 277 279 281 282 283 283 282 280 277 274 270 261 248 222 195 184 196 207 215 216 220 228 236 241 244 246 246 240 232 226 222 216 208 208 210 210 206 196 148 73 66 67 71 81 84 82 76 66 50 36 23 9 352 344 354 16 22 15 5 345 300 261 270 291 309 314 315 315 314 311 313 319 323 324 323 322 319 316 310 293 278 271 271 274 272 268 265 265 266
279 280 278 277 275 274 272 271 271 272 274 276 277 278 280 281 282 282 282 282 283 281 278 273 266 256 240 214 193 190 203 212 219 222 225 232 238 244 245 245 242 236 229 223 218 211 214 220 229 292 33 40 47 54 64 75 85 87 79 73 68 61 47 32 17 354 334 332 2 25 16 1 343 328 317 308 315 322 324 324 324 323 322 320 319 323 323 322 320 318 316 314 311 303 282 256 253 261 267 268 268 267 268
282 281 279 278 276 274 273 273 274 276 279 282 284 284 283 282 281 281 282 282 281 280 278 273 263 248 226 202 192 201 213 219 223 227 233 238 243 247 253 255 253 248 248 248 245 241 347 19 28 36 39 45 57 80 96 99 93 82 76 73 69 63 52 37 12 321 304 341 19 17 1 348 337 331 331 334 335 334 330 325 322 317 315 313 315 318 318 316 314 311 309 308 308 308 292 255 243 252 263 269 271 272 272
281 279 278 276 275 273 274 276 279 282 284 286 287 286 283 280 279 281 282 280 278 277 276 269 257 239 216 203 208 220 225 227 230 234 240 248 258 271 287 299 310 327 355 12 24 30 33 35 37 42 55 81 106 113 106 98 90 84 82 81 80 79 84 159 219 227 263 13 9 357 346 339 334 329 330 332 331 328 322 317 313 310 308 307 309 312 311 309 306 304 304 305 306 308 296 275 257 258 265 271 276 278 277
277 276 275 274 274 274 275 277 280 282 283 283 282 281 278 276 276 278 277 275 273 272 268 260 248 224 214 219 227 236 240 240 241 248 260 277 304 329 334 341 357 31 49 56 58 55 50 47 45 49 87 104 104 99 96 95 95 95 97 101 115 146 193 212 212 183 44 11 350 333 331 327 325 323 324 322 318 315 310 307 305 303 301 301 303 306 303 301 300 300 302 304 304 305 298 287 272 268 269 272 275 278 278
275 276 276 277 277 277 276 277 278 279 280 280 279 278 277 276 273 269 269 270 269 265 257 248 235 220 228 236 244 254 266 274 282 291 306 321 333 341 337 339 10 80 93 96 96 96 97 98 90 33 62 78 88 94 97 99 101 107 118 142 175 193 202 206 147 40 15 348 331 321 318 316 315 314 310 307 304 301 300 298 297 296 296 296 297 299 296 294 294 297 300 302 302 303 298 291 281 275 273 273 273 273 273
280 280 279 280 280 281 282 283 284 284 284 284 284 285 288 289 284 274 271 271 271 265 252 244 240 240 247 261 278 291 305 320 333 340 334 330 330 331 326 327 2 103 114 117 120 125 131 129 109 81 83 88 92 96 100 104 110 119 144 190 208 207 192 170 103 2 330 317 311 310 309 307 304 300 296 293 292 292 293 293 293 293 292 292 292 292 289 289 291 294 298 300 301 303 301 297 290 282 279 277 276 274 272
289 287 285 284 285 288 291 293 293 292 292 293 295 299 301 300 295 287 280 277 275 269 256 248 252 273 291 317 331 337 339 339 337 339 338 334 330 331 333 339 358 51 92 103 108 113 112 108 103 103 105 104 101 99 101 107 119 137 167 213 224 213 198 195 213 255 274 281 285 289 291 293 293 291 290 290 292 297 302 301 296 291 286 284 285 285 284 286 289 293 298 301 303 305 304 301 293 287 283 280 278 276 276